Weather History for Pierre, SD

Change the Weather History Date:

Monday, November 4, 2013

  Actual Average Record
Temperature  
Mean Temperature 37 °F 40 °F  
Max Temperature 47 °F 51 °F 78 °F (1978)
Min Temperature 27 °F 29 °F 0 °F (1951)
Degree Days  
Heating Degree Days 28 25  
Month to date heating degree days 91 98  
Since 1 July heating degree days 769 779  
Cooling Degree Days 0 0  
Month to date cooling degree days 0 0  
Year to date cooling degree days 853 868  
Moisture  
Dew Point 26 °F    
Average Humidity 60    
Maximum Humidity 82    
Minimum Humidity 38    
Precipitation  
Precipitation 0.00 in 0.03 in 0.47 in (1922)
Month to date precipitation T 0.12  
Year to date precipitation 22.84 18.82  
Snow  
Snow 0.00 in 0.10 in 4.00 in (1959)
Month to date snowfall 0.0 0.4  
Since 1 July snowfall 0.5 1.4  
Snow Depth 0.00 in    
Sea Level Pressure  
Sea Level Pressure 29.98 in    
Wind  
Wind Speed 13 mph (WNW)    
Max Wind Speed 23 mph    
Max Gust Speed 29 mph    
Visibility 10 miles    
Events      
T = Trace of Precipitation, MM = Missing Value Source: NWS Daily Summary

Daily Weather History Graph

Daily Weather History Graph

Search for Another Location

Airport:

Trip Planner

Search our weather history database for the weather conditions in past years. The results will help you decide how hot, cold, wet, or windy it might be!

Date:

Astronomy

Nov. 04, 2013 Rise Set
Actual Time 7:22 AM CST 5:26 PM CST
Civil Twilight 6:52 AM CST 5:56 PM CST
Nautical Twilight 6:17 AM CST 6:31 PM CST
Astronomical Twilight 5:43 AM CST 7:04 PM CST
Moon 8:37 AM CST (11/4) 6:29 PM CST (11/4)
Length of Visible Light 11h 04m
Length of Day
10h 03m
New Moon, 2% of the Moon is Illuminated
Nov 4
New Moon
Nov 9
First Quarter
Nov 17
Full
Nov 25
Last Quarter
Dec 2
New

Hourly Weather History & Observations

Time (CST) Temp. Windchill Dew Point Humidity Pressure Visibility Wind Dir Wind Speed Gust Speed Precip Events Conditions
12:53 AM 43.0 °F 38.8 °F 34.0 °F 71% 29.75 in 10.0 mi West 6.9 mph - N/A   Mostly Cloudy
1:53 AM 44.1 °F 37.7 °F 32.0 °F 63% 29.78 in 10.0 mi WNW 12.7 mph - N/A   Partly Cloudy
2:53 AM 42.1 °F 34.5 °F 28.9 °F 60% 29.80 in 10.0 mi NW 15.0 mph - N/A   Clear
3:53 AM 42.1 °F 33.9 °F 28.9 °F 60% 29.81 in 10.0 mi NW 17.3 mph - N/A   Scattered Clouds
4:53 AM 42.1 °F 33.9 °F 28.9 °F 60% 29.83 in 10.0 mi NW 17.3 mph - N/A   Overcast
5:53 AM 41.0 °F 32.2 °F 28.0 °F 60% 29.86 in 10.0 mi NW 18.4 mph - N/A   Overcast
6:53 AM 39.9 °F 30.5 °F 27.0 °F 60% 29.90 in 10.0 mi NW 19.6 mph 25.3 mph N/A   Overcast
7:53 AM 37.9 °F 28.2 °F 27.0 °F 65% 29.93 in 10.0 mi NW 18.4 mph 24.2 mph N/A   Partly Cloudy
8:53 AM 39.0 °F 29.0 °F 26.1 °F 60% 29.98 in 10.0 mi NW 20.7 mph 24.2 mph N/A   Partly Cloudy
9:53 AM 39.9 °F 30.8 °F 26.1 °F 58% 30.01 in 10.0 mi WNW 18.4 mph 26.5 mph N/A   Partly Cloudy
10:53 AM 41.0 °F 32.2 °F 26.1 °F 55% 30.01 in 10.0 mi WNW 18.4 mph 26.5 mph N/A   Clear
11:53 AM 43.0 °F 35.7 °F 26.1 °F 51% 30.01 in 10.0 mi West 15.0 mph 20.7 mph N/A   Clear
12:53 PM 45.0 °F 38.5 °F 26.1 °F 48% 30.01 in 10.0 mi West 13.8 mph - N/A   Clear
1:53 PM 46.0 °F 39.9 °F 25.0 °F 44% 29.99 in 10.0 mi West 13.8 mph 23.0 mph N/A   Clear
2:53 PM 46.9 °F - 24.1 °F 41% 29.99 in 10.0 mi WNW 17.3 mph 23.0 mph N/A   Clear
3:53 PM 46.9 °F - 23.0 °F 39% 30.00 in 10.0 mi WNW 17.3 mph - N/A   Clear
4:53 PM 44.1 °F 37.7 °F 23.0 °F 43% 30.01 in 10.0 mi WNW 12.7 mph - N/A   Clear
5:53 PM 39.0 °F 34.8 °F 23.0 °F 53% 30.05 in 10.0 mi West 5.8 mph - N/A   Clear
6:53 PM 34.0 °F 28.0 °F 24.1 °F 67% 30.10 in 10.0 mi NW 6.9 mph - N/A   Clear
7:53 PM 32.0 °F 25.6 °F 24.1 °F 73% 30.12 in 10.0 mi NNW 6.9 mph - N/A   Clear
8:53 PM 30.0 °F 22.4 °F 23.0 °F 75% 30.13 in 10.0 mi NNW 8.1 mph - N/A   Clear
9:53 PM 27.0 °F - 21.0 °F 78% 30.16 in 10.0 mi Calm Calm - N/A   Clear
10:53 PM 30.0 °F - 21.9 °F 72% 30.17 in 10.0 mi Calm Calm - N/A   Partly Cloudy
11:53 PM 28.9 °F - 23.0 °F 78% 30.18 in 10.0 mi Calm Calm - N/A   Mostly Cloudy